Time,TemperatureF,DewpointF,PressureIn,WindDirection,WindDirectionDegrees,WindSpeedMPH,WindSpeedGustMPH,Humidity,HourlyPrecipIn,Conditions,Clouds,dailyrainin,SoftwareType,DateUTC
2013-04-26 00:01:00,56.0,43.6,30.09,North,0,0.0,1.6,63,0.00,,,0.00,WUHU216HW,2013-04-26 07:01:00,
2013-04-26 00:06:00,56.2,43.8,30.09,North,0,0.0,0.0,63,0.00,,,0.00,WUHU216HW,2013-04-26 07:06:00,
2013-04-26 00:11:00,56.2,43.8,30.10,North,0,0.0,0.0,63,0.00,,,0.00,WUHU216HW,2013-04-26 07:11:00,
2013-04-26 00:16:00,56.2,43.3,30.10,North,0,0.0,0.2,62,0.00,,,0.00,WUHU216HW,2013-04-26 07:16:00,
2013-04-26 00:21:00,56.2,43.8,30.10,North,0,0.0,0.2,63,0.00,,,0.00,WUHU216HW,2013-04-26 07:21:00,
2013-04-26 00:26:00,56.0,43.6,30.10,North,0,0.4,0.7,63,0.00,,,0.00,WUHU216HW,2013-04-26 07:26:00,
2013-04-26 00:31:00,55.8,43.4,30.10,North,0,0.0,0.7,63,0.00,,,0.00,WUHU216HW,2013-04-26 07:31:00,
2013-04-26 00:36:00,55.8,43.4,30.10,North,0,0.4,0.4,63,0.00,,,0.00,WUHU216HW,2013-04-26 07:36:00,
2013-04-26 00:41:00,55.4,43.0,30.11,North,0,0.0,0.9,63,0.00,,,0.00,WUHU216HW,2013-04-26 07:41:00,
2013-04-26 00:46:00,55.3,43.3,30.11,North,0,1.1,1.1,64,0.00,,,0.00,WUHU216HW,2013-04-26 07:46:00,
2013-04-26 00:51:00,54.9,42.9,30.11,North,0,0.2,1.3,64,0.00,,,0.00,WUHU216HW,2013-04-26 07:51:00,
2013-04-26 00:56:00,54.7,42.8,30.11,North,0,0.0,1.3,64,0.00,,,0.00,WUHU216HW,2013-04-26 07:56:00,
2013-04-26 01:01:00,54.7,42.8,30.12,North,0,0.0,0.0,64,0.00,,,0.00,WUHU216HW,2013-04-26 08:01:00,
2013-04-26 01:06:00,54.4,42.9,30.12,North,0,0.0,0.0,65,0.00,,,0.00,WUHU216HW,2013-04-26 08:06:00,
2013-04-26 01:11:00,54.2,43.0,30.12,West,270,0.4,0.7,66,0.00,,,0.00,WUHU216HW,2013-04-26 08:11:00,
2013-04-26 01:16:00,54.0,43.3,30.12,NW,315,1.6,1.6,67,0.00,,,0.00,WUHU216HW,2013-04-26 08:16:00,
2013-04-26 01:21:00,53.6,43.3,30.12,NW,315,0.0,1.8,68,0.00,,,0.00,WUHU216HW,2013-04-26 08:21:00,
2013-04-26 01:26:00,53.5,43.9,30.12,NW,315,0.7,1.8,70,0.00,,,0.00,WUHU216HW,2013-04-26 08:26:00,
2013-04-26 01:31:00,53.3,43.4,30.12,North,0,0.0,1.3,69,0.00,,,0.00,WUHU216HW,2013-04-26 08:31:00,
2013-04-26 01:36:00,53.3,43.4,30.12,North,0,0.0,1.3,69,0.00,,,0.00,WUHU216HW,2013-04-26 08:36:00,
2013-04-26 01:41:00,53.3,43.4,30.12,North,0,0.0,0.0,69,0.00,,,0.00,WUHU216HW,2013-04-26 08:41:00,
2013-04-26 01:46:00,53.3,43.4,30.12,North,0,0.0,0.0,69,0.00,,,0.00,WUHU216HW,2013-04-26 08:46:00,
2013-04-26 01:51:00,53.3,43.4,30.12,North,0,0.0,0.0,69,0.00,,,0.00,WUHU216HW,2013-04-26 08:51:00,
2013-04-26 01:56:00,53.3,43.4,30.12,North,0,0.0,0.0,69,0.00,,,0.00,WUHU216HW,2013-04-26 08:56:00,
2013-04-26 02:01:00,53.3,43.4,30.12,North,0,0.0,0.0,69,0.00,,,0.00,WUHU216HW,2013-04-26 09:01:00,
2013-04-26 02:06:00,52.9,43.0,30.12,North,0,0.0,0.0,69,0.00,,,0.00,WUHU216HW,2013-04-26 09:06:00,
2013-04-26 02:11:00,52.6,42.8,30.12,North,0,0.0,0.0,69,0.00,,,0.00,WUHU216HW,2013-04-26 09:11:00,
2013-04-26 02:16:00,52.4,42.9,30.12,North,0,0.0,0.0,70,0.00,,,0.00,WUHU216HW,2013-04-26 09:16:00,
2013-04-26 02:21:00,52.0,43.0,30.13,North,0,0.0,0.0,71,0.00,,,0.00,WUHU216HW,2013-04-26 09:21:00,
2013-04-26 02:26:00,51.5,42.9,30.13,NW,315,0.0,1.1,72,0.00,,,0.00,WUHU216HW,2013-04-26 09:26:00,
2013-04-26 02:31:00,51.1,42.8,30.13,NW,315,0.0,1.1,73,0.00,,,0.00,WUHU216HW,2013-04-26 09:31:00,
2013-04-26 02:36:00,51.1,42.8,30.14,NNW,338,0.0,0.7,73,0.00,,,0.00,WUHU216HW,2013-04-26 09:36:00,
2013-04-26 02:41:00,50.9,42.9,30.14,NW,315,0.0,0.4,74,0.00,,,0.00,WUHU216HW,2013-04-26 09:41:00,
2013-04-26 02:46:00,51.1,42.8,30.13,NW,315,0.0,0.4,73,0.00,,,0.00,WUHU216HW,2013-04-26 09:46:00,
2013-04-26 02:51:00,51.1,42.5,30.13,NW,315,0.0,0.0,72,0.00,,,0.00,WUHU216HW,2013-04-26 09:51:00,
2013-04-26 02:56:00,51.3,42.7,30.13,NW,315,0.0,0.0,72,0.00,,,0.00,WUHU216HW,2013-04-26 09:56:00,
2013-04-26 03:01:00,51.5,42.9,30.14,NW,315,0.0,0.0,72,0.00,,,0.00,WUHU216HW,2013-04-26 10:01:00,
2013-04-26 03:06:00,51.5,42.9,30.14,NW,315,0.0,0.2,72,0.00,,,0.00,WUHU216HW,2013-04-26 10:06:00,
2013-04-26 03:11:00,50.8,42.4,30.15,NW,315,0.0,0.4,73,0.00,,,0.00,WUHU216HW,2013-04-26 10:11:00,
2013-04-26 03:16:00,50.4,42.4,30.15,NW,315,0.0,0.4,74,0.00,,,0.00,WUHU216HW,2013-04-26 10:16:00,
2013-04-26 03:21:00,50.4,42.4,30.15,NW,315,0.0,0.4,74,0.00,,,0.00,WUHU216HW,2013-04-26 10:21:00,
2013-04-26 03:26:00,50.2,42.2,30.15,NW,315,0.0,0.0,74,0.00,,,0.00,WUHU216HW,2013-04-26 10:26:00,
2013-04-26 03:31:00,50.4,42.4,30.15,NW,315,0.0,0.0,74,0.00,,,0.00,WUHU216HW,2013-04-26 10:31:00,
2013-04-26 03:36:00,50.4,42.0,30.15,NW,315,0.0,0.0,73,0.00,,,0.00,WUHU216HW,2013-04-26 10:36:00,
2013-04-26 03:41:00,50.4,42.0,30.15,NW,315,0.0,0.0,73,0.00,,,0.00,WUHU216HW,2013-04-26 10:41:00,
2013-04-26 03:46:00,50.4,42.0,30.15,NW,315,0.0,0.0,73,0.00,,,0.00,WUHU216HW,2013-04-26 10:46:00,
2013-04-26 03:51:00,50.4,42.0,30.15,NW,315,0.0,0.0,73,0.00,,,0.00,WUHU216HW,2013-04-26 10:51:00,
2013-04-26 03:56:00,50.4,42.0,30.15,NW,315,0.0,0.0,73,0.00,,,0.00,WUHU216HW,2013-04-26 10:56:00,
2013-04-26 04:01:00,50.4,42.0,30.15,NW,315,0.0,0.0,73,0.00,,,0.00,WUHU216HW,2013-04-26 11:01:00,
2013-04-26 04:06:00,50.2,41.9,30.15,NW,315,0.0,0.0,73,0.00,,,0.00,WUHU216HW,2013-04-26 11:06:00,
2013-04-26 04:11:00,50.2,41.9,30.15,NW,315,0.0,0.0,73,0.00,,,0.00,WUHU216HW,2013-04-26 11:11:00,
2013-04-26 04:16:00,50.2,41.9,30.15,NW,315,0.0,0.0,73,0.00,,,0.00,WUHU216HW,2013-04-26 11:16:00,
2013-04-26 04:21:00,50.0,42.0,30.15,NW,315,0.0,0.0,74,0.00,,,0.00,WUHU216HW,2013-04-26 11:21:00,
2013-04-26 04:26:00,49.5,41.5,30.15,NW,315,0.0,0.0,74,0.00,,,0.00,WUHU216HW,2013-04-26 11:26:00,
2013-04-26 04:31:00,49.3,41.7,30.16,NW,315,0.0,0.0,75,0.00,,,0.00,WUHU216HW,2013-04-26 11:31:00,
2013-04-26 04:36:00,49.1,41.5,30.16,NW,315,0.0,0.0,75,0.00,,,0.00,WUHU216HW,2013-04-26 11:36:00,
2013-04-26 04:41:00,49.1,41.5,30.16,NW,315,0.0,0.0,75,0.00,,,0.00,WUHU216HW,2013-04-26 11:41:00,
2013-04-26 04:46:00,49.0,41.3,30.16,NW,315,0.0,0.0,75,0.00,,,0.00,WUHU216HW,2013-04-26 11:46:00,
2013-04-26 04:51:00,49.1,41.5,30.15,NW,315,0.0,0.0,75,0.00,,,0.00,WUHU216HW,2013-04-26 11:51:00,
2013-04-26 04:56:00,49.1,41.5,30.15,NW,315,0.0,0.0,75,0.00,,,0.00,WUHU216HW,2013-04-26 11:56:00,
2013-04-26 05:01:00,49.1,41.5,30.15,NW,315,0.0,0.0,75,0.00,,,0.00,WUHU216HW,2013-04-26 12:01:00,
2013-04-26 05:06:00,49.1,41.9,30.15,NW,315,0.0,0.0,76,0.00,,,0.00,WUHU216HW,2013-04-26 12:06:00,
2013-04-26 05:11:00,49.1,41.9,30.15,NW,315,0.0,0.0,76,0.00,,,0.00,WUHU216HW,2013-04-26 12:11:00,
2013-04-26 05:16:00,49.0,41.7,30.15,NW,315,0.0,0.0,76,0.00,,,0.00,WUHU216HW,2013-04-26 12:16:00,
2013-04-26 05:21:00,49.0,41.7,30.15,NW,315,0.0,0.2,76,0.00,,,0.00,WUHU216HW,2013-04-26 12:21:00,
2013-04-26 05:26:00,48.8,41.9,30.15,NW,315,0.0,0.2,77,0.00,,,0.00,WUHU216HW,2013-04-26 12:26:00,
2013-04-26 05:31:00,48.8,42.1,30.15,NNW,338,0.4,0.7,78,0.00,,,0.00,WUHU216HW,2013-04-26 12:31:00,
2013-04-26 05:36:00,48.8,42.1,30.15,NNW,338,0.0,0.7,78,0.00,,,0.00,WUHU216HW,2013-04-26 12:36:00,
2013-04-26 05:41:00,48.8,42.1,30.16,NNW,338,0.0,0.0,78,0.00,,,0.00,WUHU216HW,2013-04-26 12:41:00,
2013-04-26 05:46:00,48.8,42.1,30.16,NNW,338,0.0,0.0,78,0.00,,,0.00,WUHU216HW,2013-04-26 12:46:00,
2013-04-26 05:51:00,48.8,42.1,30.16,NNW,338,0.0,0.0,78,0.00,,,0.00,WUHU216HW,2013-04-26 12:51:00,
2013-04-26 05:56:00,49.0,42.3,30.16,NNW,338,0.0,0.0,78,0.00,,,0.00,WUHU216HW,2013-04-26 12:56:00,
2013-04-26 06:01:00,49.0,42.7,30.16,WNW,293,0.4,0.4,79,0.00,,,0.00,WUHU216HW,2013-04-26 13:01:00,
2013-04-26 06:06:00,49.0,43.0,30.16,NW,315,0.0,1.8,80,0.00,,,0.00,WUHU216HW,2013-04-26 13:06:00,
2013-04-26 06:12:00,49.0,43.0,30.16,West,270,0.9,1.8,80,0.00,,,0.00,WUHU216HW,2013-04-26 13:12:00,
2013-04-26 06:16:00,49.1,43.8,30.17,WSW,248,1.1,1.6,82,0.00,,,0.00,WUHU216HW,2013-04-26 13:16:00,
2013-04-26 06:22:00,49.1,43.8,30.16,WSW,248,1.3,2.5,82,0.00,,,0.00,WUHU216HW,2013-04-26 13:22:00,
2013-04-26 06:27:00,49.1,43.8,30.17,WSW,248,0.7,2.5,82,0.00,,,0.00,WUHU216HW,2013-04-26 13:27:00,
2013-04-26 06:32:00,49.3,44.0,30.17,WSW,248,1.8,4.0,82,0.00,,,0.00,WUHU216HW,2013-04-26 13:32:00,
2013-04-26 06:37:00,49.3,44.3,30.17,WSW,248,1.1,4.0,83,0.00,,,0.00,WUHU216HW,2013-04-26 13:37:00,
2013-04-26 06:42:00,49.1,44.1,30.17,WSW,248,1.8,2.9,83,0.00,,,0.00,WUHU216HW,2013-04-26 13:42:00,
2013-04-26 06:47:00,49.0,44.0,30.17,SW,225,1.8,1.8,83,0.00,,,0.00,WUHU216HW,2013-04-26 13:47:00,
2013-04-26 06:52:00,48.8,43.8,30.17,WSW,248,1.3,1.8,83,0.00,,,0.00,WUHU216HW,2013-04-26 13:52:00,
2013-04-26 06:57:00,48.8,44.1,30.17,SW,225,1.6,2.5,84,0.00,,,0.00,WUHU216HW,2013-04-26 13:57:00,
2013-04-26 07:02:00,48.8,44.1,30.17,South,180,1.6,2.9,84,0.00,,,0.00,WUHU216HW,2013-04-26 14:02:00,
2013-04-26 07:07:00,48.8,44.1,30.17,WSW,248,1.3,2.9,84,0.00,,,0.00,WUHU216HW,2013-04-26 14:07:00,
2013-04-26 07:12:00,48.6,44.3,30.17,West,270,0.9,1.8,85,0.00,,,0.00,WUHU216HW,2013-04-26 14:12:00,
2013-04-26 07:17:00,48.6,43.9,30.17,SW,225,0.4,1.8,84,0.00,,,0.00,WUHU216HW,2013-04-26 14:17:00,
2013-04-26 07:22:00,48.6,43.9,30.18,SW,225,0.0,1.8,84,0.00,,,0.00,WUHU216HW,2013-04-26 14:22:00,
2013-04-26 07:27:00,48.6,43.9,30.18,WSW,248,1.8,1.8,84,0.00,,,0.00,WUHU216HW,2013-04-26 14:27:00,
2013-04-26 07:32:00,48.8,44.1,30.19,WSW,248,0.7,1.8,84,0.00,,,0.00,WUHU216HW,2013-04-26 14:32:00,
2013-04-26 07:37:00,48.8,43.8,30.19,WSW,248,1.1,1.3,83,0.00,,,0.00,WUHU216HW,2013-04-26 14:37:00,
2013-04-26 07:42:00,49.0,44.0,30.19,WSW,248,0.0,1.3,83,0.00,,,0.00,WUHU216HW,2013-04-26 14:42:00,
2013-04-26 07:47:00,49.0,44.0,30.19,WSW,248,0.7,0.7,83,0.00,,,0.00,WUHU216HW,2013-04-26 14:47:00,
2013-04-26 07:52:00,49.1,44.1,30.19,SW,225,0.4,0.7,83,0.00,,,0.00,WUHU216HW,2013-04-26 14:52:00,
2013-04-26 07:57:00,49.3,44.7,30.19,SE,135,0.0,1.3,84,0.00,,,0.00,WUHU216HW,2013-04-26 14:57:00,
2013-04-26 08:02:00,49.3,44.3,30.19,South,180,0.2,1.3,83,0.00,,,0.00,WUHU216HW,2013-04-26 15:02:00,
2013-04-26 08:07:00,49.5,44.5,30.19,SSE,158,0.4,1.1,83,0.00,,,0.00,WUHU216HW,2013-04-26 15:07:00,
2013-04-26 08:12:00,49.7,45.0,30.20,South,180,0.2,1.1,84,0.00,,,0.00,WUHU216HW,2013-04-26 15:12:00,
2013-04-26 08:17:00,49.9,44.8,30.19,WSW,248,0.4,0.7,83,0.00,,,0.00,WUHU216HW,2013-04-26 15:17:00,
2013-04-26 08:22:00,50.0,44.7,30.19,SSW,203,1.1,1.1,82,0.00,,,0.00,WUHU216HW,2013-04-26 15:22:00,
2013-04-26 08:27:00,50.2,44.9,30.19,SSE,158,1.1,1.1,82,0.00,,,0.00,WUHU216HW,2013-04-26 15:27:00,
2013-04-26 08:32:00,50.2,45.2,30.19,SSW,203,0.4,2.0,83,0.00,,,0.00,WUHU216HW,2013-04-26 15:32:00,
2013-04-26 08:37:00,50.2,45.2,30.19,SE,135,0.4,2.0,83,0.00,,,0.00,WUHU216HW,2013-04-26 15:37:00,
2013-04-26 08:42:00,50.4,45.4,30.19,ENE,68,1.1,2.0,83,0.00,,,0.00,WUHU216HW,2013-04-26 15:42:00,
2013-04-26 08:47:00,50.4,45.7,30.20,ESE,113,1.1,2.0,84,0.00,,,0.00,WUHU216HW,2013-04-26 15:47:00,
2013-04-26 08:52:00,50.4,45.4,30.20,SE,135,0.4,1.1,83,0.00,,,0.00,WUHU216HW,2013-04-26 15:52:00,
2013-04-26 08:57:00,50.4,45.4,30.20,SSE,158,0.4,1.8,83,0.00,,,0.00,WUHU216HW,2013-04-26 15:57:00,
2013-04-26 09:02:00,50.4,45.1,30.20,SSW,203,1.1,1.8,82,0.00,,,0.00,WUHU216HW,2013-04-26 16:02:00,
2013-04-26 09:07:00,50.6,45.5,30.20,SW,225,1.6,1.6,83,0.00,,,0.00,WUHU216HW,2013-04-26 16:07:00,
2013-04-26 09:12:00,50.8,45.7,30.20,SE,135,1.1,1.8,83,0.00,,,0.00,WUHU216HW,2013-04-26 16:12:00,
2013-04-26 09:17:00,50.8,45.5,30.20,SE,135,1.6,2.0,82,0.00,,,0.00,WUHU216HW,2013-04-26 16:17:00,
2013-04-26 09:22:00,50.9,45.6,30.20,SSW,203,0.7,2.0,82,0.00,,,0.00,WUHU216HW,2013-04-26 16:22:00,
2013-04-26 09:27:00,51.3,46.0,30.20,SE,135,0.9,1.1,82,0.00,,,0.00,WUHU216HW,2013-04-26 16:27:00,
2013-04-26 09:32:00,51.7,46.4,30.20,SE,135,0.2,1.1,82,0.00,,,0.00,WUHU216HW,2013-04-26 16:32:00,
2013-04-26 09:37:00,52.2,46.5,30.20,SE,135,1.1,1.6,81,0.00,,,0.00,WUHU216HW,2013-04-26 16:37:00,
2013-04-26 09:42:00,52.4,46.7,30.19,SE,135,0.0,1.6,81,0.00,,,0.00,WUHU216HW,2013-04-26 16:42:00,
2013-04-26 09:47:00,52.7,46.8,30.19,SE,135,0.4,2.2,80,0.00,,,0.00,WUHU216HW,2013-04-26 16:47:00,
2013-04-26 09:52:00,53.3,47.3,30.19,East,90,0.7,2.5,80,0.00,,,0.00,WUHU216HW,2013-04-26 16:52:00,
2013-04-26 09:57:00,53.6,47.3,30.18,SSW,203,0.9,2.5,79,0.00,,,0.00,WUHU216HW,2013-04-26 16:57:00,
2013-04-26 10:02:00,54.0,47.7,30.19,South,180,3.1,3.1,79,0.00,,,0.00,WUHU216HW,2013-04-26 17:02:00,
2013-04-26 10:07:00,54.4,47.6,30.19,SE,135,1.3,3.1,78,0.00,,,0.00,WUHU216HW,2013-04-26 17:07:00,
2013-04-26 10:12:00,54.9,48.5,30.19,SSW,203,1.6,1.6,79,0.00,,,0.00,WUHU216HW,2013-04-26 17:12:00,
2013-04-26 10:17:00,55.1,48.3,30.19,NE,45,0.4,1.6,78,0.00,,,0.00,WUHU216HW,2013-04-26 17:17:00,
2013-04-26 10:22:00,55.3,48.5,30.20,SSE,158,2.5,2.5,78,0.00,,,0.00,WUHU216HW,2013-04-26 17:22:00,
2013-04-26 10:27:00,55.6,48.5,30.20,WNW,293,0.4,2.5,77,0.00,,,0.00,WUHU216HW,2013-04-26 17:27:00,
2013-04-26 10:32:00,55.8,48.6,30.20,South,180,0.7,1.6,77,0.00,,,0.00,WUHU216HW,2013-04-26 17:32:00,
2013-04-26 10:37:00,56.3,48.8,30.20,SW,225,0.4,2.0,76,0.00,,,0.00,WUHU216HW,2013-04-26 17:37:00,
2013-04-26 10:42:00,56.7,48.8,30.20,WNW,293,1.6,2.0,75,0.00,,,0.00,WUHU216HW,2013-04-26 17:42:00,
2013-04-26 10:47:00,56.9,48.6,30.20,SSW,203,1.1,2.0,74,0.00,,,0.00,WUHU216HW,2013-04-26 17:47:00,
2013-04-26 10:52:00,57.4,48.8,30.20,WSW,248,2.7,3.4,73,0.00,,,0.00,WUHU216HW,2013-04-26 17:52:00,
2013-04-26 10:57:00,57.6,49.0,30.20,South,180,1.1,3.4,73,0.00,,,0.00,WUHU216HW,2013-04-26 17:57:00,
2013-04-26 11:02:00,58.0,49.3,30.20,South,180,1.8,2.5,73,0.00,,,0.00,WUHU216HW,2013-04-26 18:02:00,
2013-04-26 11:07:00,58.5,49.5,30.20,SW,225,2.7,2.7,72,0.00,,,0.00,WUHU216HW,2013-04-26 18:07:00,
2013-04-26 11:12:00,58.5,49.1,30.20,WSW,248,1.8,2.9,71,0.00,,,0.00,WUHU216HW,2013-04-26 18:12:00,
2013-04-26 11:17:00,58.3,49.0,30.20,SSW,203,1.8,3.4,71,0.00,,,0.00,WUHU216HW,2013-04-26 18:17:00,
2013-04-26 11:22:00,58.7,49.3,30.20,SSW,203,2.5,3.4,71,0.00,,,0.00,WUHU216HW,2013-04-26 18:22:00,
2013-04-26 11:27:00,58.9,48.3,30.20,SW,225,2.2,3.4,68,0.00,,,0.00,WUHU216HW,2013-04-26 18:27:00,
2013-04-26 11:32:00,58.5,48.3,30.21,WSW,248,1.1,3.4,69,0.00,,,0.00,WUHU216HW,2013-04-26 18:32:00,
2013-04-26 11:37:00,58.5,48.8,30.21,WSW,248,1.1,2.7,70,0.00,,,0.00,WUHU216HW,2013-04-26 18:37:00,
2013-04-26 11:42:00,58.9,49.1,30.21,NNW,338,0.7,3.4,70,0.00,,,0.00,WUHU216HW,2013-04-26 18:42:00,
2013-04-26 11:47:00,58.9,48.7,30.21,NW,315,3.6,3.8,69,0.00,,,0.00,WUHU216HW,2013-04-26 18:47:00,
2013-04-26 11:52:00,58.9,49.1,30.20,NE,45,1.3,3.8,70,0.00,,,0.00,WUHU216HW,2013-04-26 18:52:00,
2013-04-26 11:57:00,59.0,49.3,30.21,WSW,248,1.3,2.7,70,0.00,,,0.00,WUHU216HW,2013-04-26 18:57:00,
2013-04-26 12:02:00,59.2,49.1,30.20,SW,225,4.5,4.5,69,0.00,,,0.00,WUHU216HW,2013-04-26 19:02:00,
2013-04-26 12:07:00,59.4,49.2,30.20,WSW,248,2.5,4.5,69,0.00,,,0.00,WUHU216HW,2013-04-26 19:07:00,
2013-04-26 12:12:00,59.4,48.9,30.20,SSW,203,2.5,3.1,68,0.00,,,0.00,WUHU216HW,2013-04-26 19:12:00,
2013-04-26 12:17:00,59.8,49.2,30.20,West,270,0.0,3.4,68,0.00,,,0.00,WUHU216HW,2013-04-26 19:17:00,
2013-04-26 12:22:00,60.1,48.3,30.20,West,270,3.4,3.4,65,0.00,,,0.00,WUHU216HW,2013-04-26 19:22:00,
2013-04-26 12:27:00,60.1,49.1,30.20,SW,225,0.4,3.4,67,0.00,,,0.00,WUHU216HW,2013-04-26 19:27:00,
2013-04-26 12:32:00,60.5,49.2,30.20,SW,225,3.1,3.4,66,0.00,,,0.00,WUHU216HW,2013-04-26 19:32:00,
2013-04-26 12:37:00,60.7,48.9,30.20,SW,225,1.6,3.1,65,0.00,,,0.00,WUHU216HW,2013-04-26 19:37:00,
2013-04-26 12:42:00,60.8,49.1,30.20,West,270,1.3,3.6,65,0.00,,,0.00,WUHU216HW,2013-04-26 19:42:00,
2013-04-26 12:47:00,60.8,48.6,30.20,West,270,1.6,3.6,64,0.00,,,0.00,WUHU216HW,2013-04-26 19:47:00,
2013-04-26 12:52:00,60.8,49.1,30.20,SSE,158,0.9,3.4,65,0.00,,,0.00,WUHU216HW,2013-04-26 19:52:00,
2013-04-26 12:57:00,61.4,50.0,30.20,South,180,2.5,2.5,66,0.00,,,0.00,WUHU216HW,2013-04-26 19:57:00,
2013-04-26 13:02:00,61.7,50.3,30.20,SSW,203,0.2,4.0,66,0.00,,,0.00,WUHU216HW,2013-04-26 20:02:00,
2013-04-26 13:07:00,62.1,50.2,30.20,West,270,3.8,4.0,65,0.00,,,0.00,WUHU216HW,2013-04-26 20:07:00,
2013-04-26 13:12:00,62.3,50.3,30.20,WSW,248,3.4,3.8,65,0.00,,,0.00,WUHU216HW,2013-04-26 20:12:00,
2013-04-26 13:17:00,62.6,49.4,30.20,NNW,338,2.5,4.3,62,0.00,,,0.00,WUHU216HW,2013-04-26 20:17:00,
2013-04-26 13:22:00,62.3,50.0,30.20,NNE,23,0.0,4.3,64,0.00,,,0.00,WUHU216HW,2013-04-26 20:22:00,
2013-04-26 13:27:00,63.0,50.6,30.20,WSW,248,1.1,3.6,64,0.00,,,0.00,WUHU216HW,2013-04-26 20:27:00,
2013-04-26 13:32:00,63.5,50.7,30.20,SW,225,1.6,3.6,63,0.00,,,0.00,WUHU216HW,2013-04-26 20:32:00,
2013-04-26 13:37:00,64.1,50.8,30.20,West,270,2.7,3.1,62,0.00,,,0.00,WUHU216HW,2013-04-26 20:37:00,
2013-04-26 13:42:00,64.3,50.0,30.20,SW,225,1.1,2.7,60,0.00,,,0.00,WUHU216HW,2013-04-26 20:42:00,
2013-04-26 13:47:00,64.3,50.0,30.20,SE,135,1.1,2.7,60,0.00,,,0.00,WUHU216HW,2013-04-26 20:47:00,
2013-04-26 13:52:00,64.6,49.4,30.20,SW,225,1.6,2.7,58,0.00,,,0.00,WUHU216HW,2013-04-26 20:52:00,
2013-04-26 13:57:00,64.3,49.1,30.20,South,180,2.5,2.5,58,0.00,,,0.00,WUHU216HW,2013-04-26 20:57:00,
2013-04-26 14:02:00,64.1,49.9,30.20,WSW,248,2.5,2.5,60,0.00,,,0.00,WUHU216HW,2013-04-26 21:02:00,
2013-04-26 14:07:00,64.3,50.0,30.20,NNW,338,1.3,3.6,60,0.00,,,0.00,WUHU216HW,2013-04-26 21:07:00,
2013-04-26 14:12:00,63.9,49.8,30.20,West,270,2.9,3.6,60,0.00,,,0.00,WUHU216HW,2013-04-26 21:12:00,
2013-04-26 14:17:00,64.3,50.5,30.20,SSE,158,2.5,2.9,61,0.00,,,0.00,WUHU216HW,2013-04-26 21:17:00,
2013-04-26 14:22:00,64.6,50.0,30.20,WSW,248,3.4,3.4,59,0.00,,,0.00,WUHU216HW,2013-04-26 21:22:00,
2013-04-26 14:27:00,64.6,50.4,30.20,NW,315,0.4,3.4,60,0.00,,,0.00,WUHU216HW,2013-04-26 21:27:00,
2013-04-26 14:32:00,64.4,49.8,30.20,SW,225,2.5,4.0,59,0.00,,,0.00,WUHU216HW,2013-04-26 21:32:00,
2013-04-26 14:37:00,64.3,49.6,30.20,West,270,1.1,4.0,59,0.00,,,0.00,WUHU216HW,2013-04-26 21:37:00,
2013-04-26 14:42:00,64.4,50.7,30.20,SSW,203,1.8,2.7,61,0.00,,,0.00,WUHU216HW,2013-04-26 21:42:00,
2013-04-26 14:47:00,64.8,50.6,30.20,WSW,248,3.8,3.8,60,0.00,,,0.00,WUHU216HW,2013-04-26 21:47:00,
2013-04-26 14:52:00,64.8,50.1,30.20,North,0,1.1,3.8,59,0.00,,,0.00,WUHU216HW,2013-04-26 21:52:00,
2013-04-26 14:57:00,64.6,50.4,30.20,WSW,248,1.1,2.5,60,0.00,,,0.00,WUHU216HW,2013-04-26 21:57:00,
2013-04-26 15:02:00,65.0,50.3,30.20,WSW,248,2.9,2.9,59,0.00,,,0.00,WUHU216HW,2013-04-26 22:02:00,
2013-04-26 15:07:00,65.0,50.3,30.20,West,270,1.3,3.8,59,0.00,,,0.00,WUHU216HW,2013-04-26 22:07:00,
2013-04-26 15:12:00,65.2,50.5,30.19,SSW,203,1.6,4.0,59,0.00,,,0.00,WUHU216HW,2013-04-26 22:12:00,
2013-04-26 15:17:00,65.2,50.5,30.19,WSW,248,4.0,4.7,59,0.00,,,0.00,WUHU216HW,2013-04-26 22:17:00,
2013-04-26 15:22:00,65.2,50.5,30.19,SSW,203,2.2,4.7,59,0.00,,,0.00,WUHU216HW,2013-04-26 22:22:00,
2013-04-26 15:27:00,65.2,50.5,30.19,WSW,248,4.3,4.3,59,0.00,,,0.00,WUHU216HW,2013-04-26 22:27:00,
2013-04-26 15:32:00,65.0,50.3,30.18,WSW,248,1.1,4.3,59,0.00,,,0.00,WUHU216HW,2013-04-26 22:32:00,
2013-04-26 15:37:00,64.8,50.1,30.18,SSE,158,2.5,3.6,59,0.00,,,0.00,WUHU216HW,2013-04-26 22:37:00,
2013-04-26 15:42:00,65.0,50.3,30.18,WSW,248,2.0,3.8,59,0.00,,,0.00,WUHU216HW,2013-04-26 22:42:00,
2013-04-26 15:47:00,64.6,50.0,30.18,SSE,158,1.6,3.8,59,0.00,,,0.00,WUHU216HW,2013-04-26 22:47:00,
2013-04-26 15:52:00,64.4,50.2,30.17,WSW,248,1.6,3.4,60,0.00,,,0.00,WUHU216HW,2013-04-26 22:52:00,
2013-04-26 15:57:00,64.6,50.4,30.17,South,180,0.7,3.4,60,0.00,,,0.00,WUHU216HW,2013-04-26 22:57:00,
2013-04-26 16:02:00,65.0,50.3,30.17,NNW,338,1.1,3.4,59,0.00,,,0.00,WUHU216HW,2013-04-26 23:02:00,
2013-04-26 16:07:00,65.0,50.3,30.17,WSW,248,3.4,3.4,59,0.00,,,0.00,WUHU216HW,2013-04-26 23:07:00,
2013-04-26 16:12:00,65.2,50.9,30.17,WSW,248,1.8,3.4,60,0.00,,,0.00,WUHU216HW,2013-04-26 23:12:00,
2013-04-26 16:17:00,65.2,50.5,30.17,SE,135,3.4,3.4,59,0.00,,,0.00,WUHU216HW,2013-04-26 23:17:00,
2013-04-26 16:22:00,65.2,50.5,30.17,SW,225,1.8,3.4,59,0.00,,,0.00,WUHU216HW,2013-04-26 23:22:00,
2013-04-26 16:27:00,65.2,50.9,30.17,SW,225,0.7,3.4,60,0.00,,,0.00,WUHU216HW,2013-04-26 23:27:00,
2013-04-26 16:32:00,65.3,50.7,30.17,West,270,1.8,2.2,59,0.00,,,0.00,WUHU216HW,2013-04-26 23:32:00,
2013-04-26 16:37:00,65.5,50.9,30.17,WSW,248,2.2,2.2,59,0.00,,,0.00,WUHU216HW,2013-04-26 23:37:00,
2013-04-26 16:42:00,65.3,50.7,30.17,WSW,248,2.5,2.5,59,0.00,,,0.00,WUHU216HW,2013-04-26 23:42:00,
2013-04-26 16:47:00,65.5,50.9,30.16,WSW,248,1.1,4.9,59,0.00,,,0.00,WUHU216HW,2013-04-26 23:47:00,
2013-04-26 16:52:00,65.5,50.3,30.16,SW,225,3.4,4.9,58,0.00,,,0.00,WUHU216HW,2013-04-26 23:52:00,
2013-04-26 16:54:00,65.7,50.5,30.16,SW,225,2.2,4.9,58,0.00,,,0.00,WUHU216HW,2013-04-26 23:54:00,
2013-04-26 17:05:00,65.7,50.5,30.16,West,270,3.4,4.5,58,0.00,,,0.00,WUHU216HW,2013-04-27 00:05:00,
2013-04-26 17:10:00,65.9,50.7,30.15,WSW,248,1.1,3.1,58,0.00,,,0.00,WUHU216HW,2013-04-27 00:10:00,
2013-04-26 17:15:00,66.2,50.6,30.15,NW,315,2.2,2.7,57,0.00,,,0.00,WUHU216HW,2013-04-27 00:15:00,
2013-04-26 17:20:00,66.2,50.6,30.15,WSW,248,3.6,3.6,57,0.00,,,0.00,WUHU216HW,2013-04-27 00:20:00,
2013-04-26 17:25:00,66.6,50.0,30.15,WSW,248,2.7,3.6,55,0.00,,,0.00,WUHU216HW,2013-04-27 00:25:00,
2013-04-26 17:30:00,66.8,50.6,30.15,SW,225,0.2,3.1,56,0.00,,,0.00,WUHU216HW,2013-04-27 00:30:00,
2013-04-26 17:35:00,66.6,50.4,30.15,WSW,248,2.5,3.4,56,0.00,,,0.00,WUHU216HW,2013-04-27 00:35:00,
2013-04-26 17:40:00,66.6,49.4,30.15,WSW,248,3.4,3.6,54,0.00,,,0.00,WUHU216HW,2013-04-27 00:40:00,
2013-04-26 17:45:00,66.6,50.0,30.15,WSW,248,3.4,3.6,55,0.00,,,0.00,WUHU216HW,2013-04-27 00:45:00,
2013-04-26 17:50:00,66.4,49.8,30.15,WSW,248,1.1,3.6,55,0.00,,,0.00,WUHU216HW,2013-04-27 00:50:00,
2013-04-26 17:55:00,66.4,49.8,30.15,SW,225,1.1,2.5,55,0.00,,,0.00,WUHU216HW,2013-04-27 00:55:00,
2013-04-26 18:00:00,66.2,50.0,30.15,SW,225,1.1,1.8,56,0.00,,,0.00,WUHU216HW,2013-04-27 01:00:00,
2013-04-26 18:05:00,66.4,50.2,30.15,SW,225,0.9,2.5,56,0.00,,,0.00,WUHU216HW,2013-04-27 01:05:00,
2013-04-26 18:10:00,66.2,50.0,30.15,SW,225,1.1,2.5,56,0.00,,,0.00,WUHU216HW,2013-04-27 01:10:00,
2013-04-26 18:15:00,66.1,49.9,30.14,SW,225,0.0,2.2,56,0.00,,,0.00,WUHU216HW,2013-04-27 01:15:00,
2013-04-26 18:20:00,66.2,50.6,30.15,NW,315,1.3,1.3,57,0.00,,,0.00,WUHU216HW,2013-04-27 01:20:00,
2013-04-26 18:25:00,66.2,50.6,30.14,West,270,0.2,1.3,57,0.00,,,0.00,WUHU216HW,2013-04-27 01:25:00,
2013-04-26 18:30:00,66.2,50.6,30.14,WSW,248,0.0,1.3,57,0.00,,,0.00,WUHU216HW,2013-04-27 01:30:00,
2013-04-26 18:35:00,66.2,50.6,30.14,WSW,248,0.0,1.1,57,0.00,,,0.00,WUHU216HW,2013-04-27 01:35:00,
2013-04-26 18:40:00,66.2,50.6,30.14,WSW,248,0.0,1.1,57,0.00,,,0.00,WUHU216HW,2013-04-27 01:40:00,
2013-04-26 18:45:00,66.1,50.4,30.14,WSW,248,0.0,0.7,57,0.00,,,0.00,WUHU216HW,2013-04-27 01:45:00,
2013-04-26 18:50:00,66.1,50.4,30.14,WSW,248,0.0,0.7,57,0.00,,,0.00,WUHU216HW,2013-04-27 01:50:00,
2013-04-26 18:55:00,65.7,50.5,30.14,ENE,68,0.4,0.9,58,0.00,,,0.00,WUHU216HW,2013-04-27 01:55:00,
2013-04-26 19:00:00,65.3,50.1,30.14,NNE,23,1.1,1.1,58,0.00,,,0.00,WUHU216HW,2013-04-27 02:00:00,
2013-04-26 19:05:00,64.8,50.1,30.14,North,0,2.2,2.5,59,0.00,,,0.00,WUHU216HW,2013-04-27 02:05:00,
2013-04-26 19:10:00,64.8,50.1,30.14,NNE,23,1.6,2.5,59,0.00,,,0.00,WUHU216HW,2013-04-27 02:10:00,
2013-04-26 19:15:00,64.6,50.0,30.15,North,0,3.8,3.8,59,0.00,,,0.00,WUHU216HW,2013-04-27 02:15:00,
2013-04-26 19:20:00,64.4,50.2,30.15,NNE,23,4.9,4.9,60,0.00,,,0.00,WUHU216HW,2013-04-27 02:20:00,
2013-04-26 19:25:00,64.3,50.0,30.15,NNE,23,1.8,4.9,60,0.00,,,0.00,WUHU216HW,2013-04-27 02:25:00,
2013-04-26 19:30:00,64.1,50.3,30.15,NNW,338,2.2,4.5,61,0.00,,,0.00,WUHU216HW,2013-04-27 02:30:00,
2013-04-26 19:35:00,63.7,50.1,30.15,NNE,23,2.7,4.0,61,0.00,,,0.00,WUHU216HW,2013-04-27 02:35:00,
2013-04-26 19:40:00,63.7,50.4,30.15,NNW,338,2.9,4.3,62,0.00,,,0.00,WUHU216HW,2013-04-27 02:40:00,
2013-04-26 19:45:00,63.4,50.1,30.15,North,0,3.4,4.3,62,0.00,,,0.00,WUHU216HW,2013-04-27 02:45:00,
2013-04-26 19:50:00,63.0,50.2,30.15,NNW,338,0.4,3.4,63,0.00,,,0.00,WUHU216HW,2013-04-27 02:50:00,
2013-04-26 19:55:00,62.6,49.4,30.15,NW,315,2.7,2.7,62,0.00,,,0.00,WUHU216HW,2013-04-27 02:55:00,
2013-04-26 20:00:00,61.9,48.3,30.15,NNE,23,0.9,2.7,61,0.00,,,0.00,WUHU216HW,2013-04-27 03:00:00,
2013-04-26 20:05:00,61.4,47.9,30.14,NNE,23,1.8,2.9,61,0.00,,,0.00,WUHU216HW,2013-04-27 03:05:00,
2013-04-26 20:10:00,60.8,47.4,30.14,NNW,338,2.0,4.0,61,0.00,,,0.00,WUHU216HW,2013-04-27 03:10:00,
2013-04-26 20:15:00,60.7,47.3,30.14,NNE,23,1.8,4.0,61,0.00,,,0.00,WUHU216HW,2013-04-27 03:15:00,
2013-04-26 20:20:00,60.5,47.1,30.13,NNE,23,2.5,4.0,61,0.00,,,0.00,WUHU216HW,2013-04-27 03:20:00,
2013-04-26 20:25:00,60.1,46.7,30.13,North,0,1.1,4.0,61,0.00,,,0.00,WUHU216HW,2013-04-27 03:25:00,
2013-04-26 20:30:00,59.9,46.9,30.13,NE,45,2.7,3.1,62,0.00,,,0.00,WUHU216HW,2013-04-27 03:30:00,
2013-04-26 20:35:00,59.8,46.7,30.13,North,0,2.7,4.7,62,0.00,,,0.00,WUHU216HW,2013-04-27 03:35:00,
2013-04-26 20:40:00,59.6,47.0,30.13,North,0,1.1,5.1,63,0.00,,,0.00,WUHU216HW,2013-04-27 03:40:00,
2013-04-26 20:45:00,59.4,47.2,30.14,NNW,338,2.0,5.1,64,0.00,,,0.00,WUHU216HW,2013-04-27 03:45:00,
2013-04-26 20:50:00,59.4,47.2,30.14,NNE,23,2.5,4.7,64,0.00,,,0.00,WUHU216HW,2013-04-27 03:50:00,
2013-04-26 20:55:00,59.2,47.0,30.14,NE,45,2.5,3.4,64,0.00,,,0.00,WUHU216HW,2013-04-27 03:55:00,
2013-04-26 21:00:00,59.0,46.8,30.14,North,0,2.5,3.6,64,0.00,,,0.00,WUHU216HW,2013-04-27 04:00:00,
2013-04-26 21:01:00,59.0,46.8,30.14,North,0,2.5,3.6,64,0.00,,,0.00,WUHU216HW,2013-04-27 04:01:00,
2013-04-26 21:06:00,59.0,46.8,30.15,NNE,23,0.9,3.6,64,0.00,,,0.00,WUHU216HW,2013-04-27 04:06:00,
2013-04-26 21:11:00,59.0,46.8,30.15,NNE,23,4.0,4.0,64,0.00,,,0.00,WUHU216HW,2013-04-27 04:11:00,
2013-04-26 21:16:00,58.9,46.3,30.15,NNE,23,2.5,4.0,63,0.00,,,0.00,WUHU216HW,2013-04-27 04:16:00,
2013-04-26 21:21:00,58.9,45.8,30.15,NE,45,2.2,4.0,62,0.00,,,0.00,WUHU216HW,2013-04-27 04:21:00,
2013-04-26 21:26:00,58.7,45.3,30.15,NNE,23,0.7,6.3,61,0.00,,,0.00,WUHU216HW,2013-04-27 04:26:00,
2013-04-26 21:31:00,58.7,45.3,30.15,North,0,1.1,6.3,61,0.00,,,0.00,WUHU216HW,2013-04-27 04:31:00,
2013-04-26 21:36:00,58.7,44.8,30.15,North,0,1.8,3.1,60,0.00,,,0.00,WUHU216HW,2013-04-27 04:36:00,
2013-04-26 21:41:00,58.7,44.8,30.15,North,0,1.1,3.1,60,0.00,,,0.00,WUHU216HW,2013-04-27 04:41:00,
2013-04-26 21:46:00,58.5,44.7,30.16,North,0,1.3,2.9,60,0.00,,,0.00,WUHU216HW,2013-04-27 04:46:00,
2013-04-26 21:51:00,58.5,44.7,30.17,NNE,23,0.9,2.9,60,0.00,,,0.00,WUHU216HW,2013-04-27 04:51:00,
2013-04-26 21:56:00,58.3,44.1,30.16,North,0,2.5,2.7,59,0.00,,,0.00,WUHU216HW,2013-04-27 04:56:00,
2013-04-26 22:01:00,58.3,43.6,30.17,NNW,338,1.1,3.8,58,0.00,,,0.00,WUHU216HW,2013-04-27 05:01:00,
2013-04-26 22:06:00,58.3,43.6,30.17,NNE,23,1.1,3.8,58,0.00,,,0.00,WUHU216HW,2013-04-27 05:06:00,
2013-04-26 22:11:00,58.1,43.5,30.16,SW,225,1.1,2.9,58,0.00,,,0.00,WUHU216HW,2013-04-27 05:11:00,
2013-04-26 22:16:00,58.0,43.3,30.16,North,0,0.4,2.7,58,0.00,,,0.00,WUHU216HW,2013-04-27 05:16:00,
2013-04-26 22:21:00,58.0,43.3,30.15,NNE,23,2.5,2.5,58,0.00,,,0.00,WUHU216HW,2013-04-27 05:21:00,
2013-04-26 22:26:00,58.0,43.3,30.16,North,0,1.6,2.5,58,0.00,,,0.00,WUHU216HW,2013-04-27 05:26:00,
2013-04-26 22:31:00,58.0,43.7,30.16,North,0,0.7,2.5,59,0.00,,,0.00,WUHU216HW,2013-04-27 05:31:00,
2013-04-26 22:36:00,57.8,43.6,30.16,NNE,23,0.0,2.0,59,0.00,,,0.00,WUHU216HW,2013-04-27 05:36:00,
2013-04-26 22:41:00,57.8,44.0,30.16,ESE,113,0.0,1.8,60,0.00,,,0.00,WUHU216HW,2013-04-27 05:41:00,
2013-04-26 22:46:00,57.8,44.0,30.17,ESE,113,0.0,0.2,60,0.00,,,0.00,WUHU216HW,2013-04-27 05:46:00,
2013-04-26 22:51:00,57.8,44.5,30.16,ESE,113,0.0,0.2,61,0.00,,,0.00,WUHU216HW,2013-04-27 05:51:00,
2013-04-26 22:56:00,57.8,44.5,30.16,ESE,113,0.0,0.0,61,0.00,,,0.00,WUHU216HW,2013-04-27 05:56:00,
2013-04-26 23:01:00,57.8,44.5,30.16,ESE,113,0.0,0.0,61,0.00,,,0.00,WUHU216HW,2013-04-27 06:01:00,
2013-04-26 23:06:00,57.6,44.6,30.16,ESE,113,0.0,0.0,62,0.00,,,0.00,WUHU216HW,2013-04-27 06:06:00,
2013-04-26 23:11:00,57.6,44.6,30.16,ESE,113,0.0,0.0,62,0.00,,,0.00,WUHU216HW,2013-04-27 06:11:00,
2013-04-26 23:16:00,57.6,44.6,30.16,ESE,113,0.0,0.0,62,0.00,,,0.00,WUHU216HW,2013-04-27 06:16:00,
2013-04-26 23:21:00,57.6,44.6,30.16,ESE,113,0.0,0.0,62,0.00,,,0.00,WUHU216HW,2013-04-27 06:21:00,
2013-04-26 23:26:00,57.4,44.9,30.15,ESE,113,0.0,0.0,63,0.00,,,0.00,WUHU216HW,2013-04-27 06:26:00,
2013-04-26 23:31:00,57.4,44.9,30.15,ESE,113,0.0,0.0,63,0.00,,,0.00,WUHU216HW,2013-04-27 06:31:00,
2013-04-26 23:36:00,57.4,44.9,30.15,ESE,113,0.0,0.0,63,0.00,,,0.00,WUHU216HW,2013-04-27 06:36:00,
2013-04-26 23:41:00,57.2,44.7,30.15,ESE,113,0.0,0.0,63,0.00,,,0.00,WUHU216HW,2013-04-27 06:41:00,
2013-04-26 23:46:00,57.2,45.2,30.15,ESE,113,0.0,0.0,64,0.00,,,0.00,WUHU216HW,2013-04-27 06:46:00,
2013-04-26 23:51:00,57.2,45.2,30.15,ESE,113,0.0,0.0,64,0.00,,,0.00,WUHU216HW,2013-04-27 06:51:00,
2013-04-26 23:56:00,57.1,45.0,30.14,ESE,113,0.0,0.0,64,0.00,,,0.00,WUHU216HW,2013-04-27 06:56:00,